Regional Weather Roundup
Issued by NWS Cleveland, OH

Home | Current Version | Previous Version | Text Only | Print | Product List | Glossary Off
Versions: 1 2 3 4 5 6 7 8 9 10 11 12 13 14 15 16 17 18 19 20 21 22 23 24 25 26 27 28 29 30 31 32 33 34 35 36 37 38 39 40 41 42 43 44 45 46 47 48 49 50

000
ASUS41 KCLE 020202
RWRCLE
OHIO REGIONAL WEATHER ROUNDUP
NATIONAL WEATHER SERVICE CLEVELAND, OH
1000 PM EDT WED JUL 01 2015

NOTE: "FAIR" INDICATES FEW OR NO CLOUDS BELOW 12,000 FEET WITH NO
SIGNIFICANT WEATHER AND/OR OBSTRUCTIONS TO VISIBILITY.

OHZ001>008-015>018-024>027-034-035-043-044-020300-
   NORTHWEST OHIO

CITY           SKY/WX    TMP DP  RH WIND       PRES   REMARKS
DEFIANCE       MOCLDY    67  56  67 NW3       29.94R
FINDLAY        PTCLDY    70  58  65 N3        29.92R
TOLEDO EXPRESS MOCLDY    66  58  75 N5        29.92S
TOLEDO EXEC    MOCLDY    68  57  68 NE3       29.93S
LIMA           PTCLDY    65  61  87 NW3       29.93R
$$

OHZ009>014-019>023-028>033-038-089-020300-
   NORTHEAST OHIO

CITY           SKY/WX    TMP DP  RH WIND       PRES   REMARKS
CLE-HOPKINS    MOCLDY    68  58  70 CALM      29.95R
CLE-LAKEFRONT  MOCLDY    69  59  70 NW5       29.92R
CUY CO. ARPT   MOCLDY    64  59  82 CALM      29.93S
LORAIN-ELYRIA  MOCLDY    65  61  87 CALM      29.94R
ASHTABULA      PTCLDY    61  59  93 CALM      29.94R
AKRON-CANTON   PTCLDY    66  57  72 W3        29.94R
WOOSTER        CLEAR     62  60  93 CALM      29.95R
MANSFIELD      PTCLDY    63  58  83 CALM      29.95R
YOUNGSTOWN     MOCLDY    67  58  72 N6        29.94R
$$

OHZ042-051>053-060>062-070>072-077>081-020300-
  SOUTHWEST OHIO

CITY           SKY/WX    TMP DP  RH WIND       PRES   REMARKS
CINC-COVINGTON CLOUDY    71  65  81 CALM      29.93R
CINC-LUNKEN    LGT RAIN  67  64  90 CALM      29.92R
HAMILTON       PTCLDY    67  65  93 CALM      29.93S
DAYTON         MOCLDY    72  62  71 N3        29.94S
WRIGHT-PAT AFB PTCLDY    71  63  74 CALM      29.92S
DAYTON GENERAL CLEAR     69  61  75 CALM      29.92S
WILMINGTON     CLEAR     66  62  87 CALM      29.93R
$$

OHZ036-037-039>041-045>050-054>059-063>069-073>076-082>088-020300-
  CENTRAL AND SOUTHEAST OHIO

CITY           SKY/WX    TMP DP  RH WIND       PRES   REMARKS
COLUMBUS       CLOUDY    70  59  68 NE3       29.92R
OSU AIRPORT    PTCLDY    69  58  67 E3        29.92S
BOLTON FIELD   NOT AVBL
RICKENBACK AFB NOT AVBL
NEWARK         CLEAR     65  61  87 CALM      29.93R
MARION         CLEAR     67  59  75 CALM      29.94R
LANCASTER      CLEAR     64  61  90 CALM      29.93R
ZANESVILLE     NOT AVBL
NEW PHILLY     CLEAR     62  60  93 CALM      29.94R
$$



USA.gov is the U.S. government's official web portal to all federal, state and local government web resources and services.